Voltar ao catálogo

STARLINK-32347

AtivoComunicaçõesVLEO
NORAD 61010·PAYLOAD·🇺🇸 United States

Lançado Sep 5, 2024 de Cape Canaveral Space Force Station

Loading…

Próximas Passagens (próximas 24 horas)

TLE

AtualizadoSource: CelesTrak SupGP

Época: Sep 14, 2026, 22:20 UTC

1 61010C 24158W   26257.93104167  .00046808  00000+0  13830-2 0  2570
2 61010  53.1570 263.5611 0001229  91.2152  20.2287 15.34366392    13

Acompanhe STARLINK-32347 em tempo real com AllMySat

Download on the App Store